Nashville, TN

12:00 AM CST on December 08, 2019 (GMT -0600)
Nashville International

Weather History for KBNA - October, 2019

Change the Weather History Date:

Wednesday, October 2, 2019

  Actual Average Record
Temperature  
Mean Temperature 84 °F 65 °F  
Max Temperature 99 °F 76 °F 91 °F (1953)
Min Temperature 68 °F 54 °F 32 °F (1984)
Degree Days  
Heating Degree Days 0    
Month to date heating degree days 0  
Since 1 July heating degree days 0  
Cooling Degree Days 18    
Month to date cooling degree days 38  
Year to date cooling degree days 2209  
Growing Degree Days 34 (Base 50)    
Moisture  
Dew Point 63 °F    
Average Humidity 57    
Maximum Humidity 90    
Minimum Humidity 27    
Precipitation  
Precipitation 0.00 in 0.10 in 1.33 in (1937)
Month to date precipitation 0.00 0.20  
Year to date precipitation 47.42 35.86  
Sea Level Pressure  
Sea Level Pressure 30.00 in    
Wind  
Wind Speed 3 mph ()    
Max Wind Speed 12 mph    
Max Gust Speed 15 mph    
Visibility 10.0 miles    
Events      
T = Trace of Precipitation, MM = Missing Value Source: Averaged Metar Reports

Daily Weather History Graph

Daily Weather History Graph

Search for Another Location

Airport or City:

Astronomy

Oct. 02, 2019 Rise Set
Actual Time 6:42 AM CDT 6:29 PM CDT
Civil Twilight 6:16 AM CDT 6:54 PM CDT
Nautical Twilight 5:47 AM CDT 7:24 PM CDT
Astronomical Twilight 5:17 AM CDT 7:54 PM CDT
Moon 11:00 AM CDT (10/2) 9:30 PM CDT (10/2)
Length of Visible Light 12h 37m
Length of Day
11h 46m
Waxing Crescent, 20% of the Moon is Illuminated
Oct 2
Waxing Crescent
Oct 5
First Quarter
Oct 13
Full
Oct 21
Last Quarter
Oct 27
New

Hourly Weather History & Observations

Time (CDT) Temp. Heat Index Dew Point Humidity Pressure Visibility Wind Dir Wind Speed Gust Speed Precip Events Conditions
12:53 AM 73.0 °F - 66.0 °F 79% 30.00 in 10.0 mi South 4.6 mph - N/A   Clear
1:53 AM 72.0 °F - 66.0 °F 81% 30.00 in 10.0 mi South 3.5 mph - N/A   Clear
2:53 AM 70.0 °F - 64.9 °F 84% 29.99 in 10.0 mi Calm Calm - N/A   Clear
3:53 AM 69.1 °F - 64.9 °F 87% 30.00 in 10.0 mi South 3.5 mph - N/A   Clear
4:53 AM 68.0 °F - 64.0 °F 87% 30.00 in 10.0 mi SSW 3.5 mph - N/A   Clear
5:53 AM 69.1 °F - 64.0 °F 84% 30.01 in 10.0 mi Calm Calm - N/A   Clear
6:53 AM 68.0 °F - 64.0 °F 87% 30.04 in 10.0 mi Calm Calm - N/A   Partly Cloudy
7:53 AM 70.0 °F - 66.0 °F 87% 30.05 in 10.0 mi Calm Calm - N/A   Partly Cloudy
8:53 AM 81.0 °F 83.3 °F 66.9 °F 62% 30.06 in 10.0 mi Calm Calm - N/A   Clear
9:53 AM 88.0 °F 89.6 °F 64.9 °F 46% 30.06 in 10.0 mi WNW 4.6 mph - N/A   Clear
10:53 AM 91.9 °F 92.9 °F 63.0 °F 38% 30.06 in 10.0 mi WNW 6.9 mph - N/A   Clear
11:53 AM 93.9 °F 95.2 °F 63.0 °F 36% 30.04 in 10.0 mi NNW 6.9 mph - N/A   Partly Cloudy
12:53 PM 95.0 °F 95.6 °F 62.1 °F 33% 30.01 in 10.0 mi NNW 3.5 mph - N/A   Partly Cloudy
1:53 PM 97.0 °F 97.8 °F 62.1 °F 31% 29.98 in 10.0 mi West 10.4 mph - N/A   Scattered Clouds
2:53 PM 97.0 °F 96.5 °F 59.0 °F 28% 29.96 in 10.0 mi SW 8.1 mph - N/A   Scattered Clouds
3:53 PM 97.0 °F 96.5 °F 59.0 °F 28% 29.95 in 10.0 mi Variable 6.9 mph - N/A   Scattered Clouds
4:53 PM 97.0 °F 96.1 °F 57.9 °F 27% 29.94 in 10.0 mi Variable 5.8 mph - N/A   Partly Cloudy
5:53 PM 93.9 °F 92.9 °F 57.9 °F 30% 29.94 in 10.0 mi SW 4.6 mph - N/A   Partly Cloudy
6:53 PM 90.0 °F 89.1 °F 59.0 °F 35% 29.95 in 10.0 mi SW 3.5 mph - N/A   Partly Cloudy
7:53 PM 84.9 °F 85.0 °F 61.0 °F 44% 29.97 in 10.0 mi Calm Calm - N/A   Clear
8:53 PM 81.0 °F 81.9 °F 62.1 °F 52% 29.98 in 10.0 mi SSW 4.6 mph - N/A   Clear
9:53 PM 79.0 °F - 63.0 °F 58% 29.98 in 10.0 mi South 3.5 mph - N/A   Clear
10:53 PM 77.0 °F - 63.0 °F 62% 29.97 in 10.0 mi South 5.8 mph - N/A   Clear
11:53 PM 71.1 °F - 64.0 °F 78% 29.98 in 10.0 mi South 4.6 mph - N/A   Clear